CW4143 Weather Reports


Display with metric or nautical units.
time (UTC)temp
F
wind
direction
speed
MPH
gust
MPH
rain 1hr
in
rain 24hr
in
rain mn
in
humidity
%
barometer
mb
20260505041353 53 48 8.0 15.0 0.00 0.00 0.00 75 1011.0
20260505040835 54 289 7.0 15.0 0.00 0.00 0.00 74 1011.0
20260505040351 54 178 9.0 15.0 0.00 0.00 0.00 69 1011.0
20260505035831 55 121 8.0 15.0 0.00 0.00 0.00 68 1010.8
20260505035355 55 142 7.0 14.0 0.00 0.00 0.00 65 1010.8
20260505034856 56 131 6.0 14.0 0.00 0.00 0.00 62 1010.8
20260505034358 56 163 7.0 17.0 0.00 0.00 0.00 62 1010.1
20260505033837 56 192 10.0 17.0 0.00 0.00 0.00 61 1010.1
20260505033345 56 123 8.0 16.0 0.00 0.00 0.00 60 1010.1
20260505032918 56 183 11.0 16.0 0.00 0.00 0.00 59 1009.5
20260505032352 57 178 6.0 14.0 0.00 0.00 0.00 58 1009.5
20260505031830 58 227 7.0 14.0 0.00 0.00 0.00 54 1009.5
20260505031341 58 215 9.0 14.0 0.00 0.00 0.00 47 1009.5
20260505030842 58 177 8.0 12.0 0.00 0.00 0.00 44 1009.5
20260505030352 58 154 6.0 11.0 0.00 0.00 0.00 44 1009.5
20260505025833 58 151 5.0 9.0 0.00 0.00 0.00 45 1009.5
20260505025348 58 152 3.0 7.0 0.00 0.00 0.00 48 1009.5
20260505024847 58 156 4.0 7.0 0.00 0.00 0.00 48 1009.5
20260505024331 58 172 4.0 5.0 0.00 0.00 0.00 48 1008.9
20260505023843 59 173 2.0 4.0 0.00 0.00 0.00 47 1008.9
20260505023355 59 150 2.0 7.0 0.00 0.00 0.00 47 1008.9
20260505022838 59 179 4.0 9.0 0.00 0.00 0.00 46 1008.7
20260505022349 59 141 4.0 9.0 0.00 0.00 0.00 45 1008.7
20260505021833 60 146 5.0 10.0 0.00 0.00 0.00 44 1008.7
20260505021344 60 198 4.0 10.0 0.00 0.00 0.00 45 1009.0
20260505020843 60 188 2.0 8.0 0.00 0.00 0.00 44 1009.0
20260505020329 60 183 3.0 7.0 0.00 0.00 0.00 45 1009.0
20260505015840 60 188 1.0 7.0 0.00 0.00 0.00 44 1008.6
20260505015406 61 198 3.0 6.0 0.00 0.00 0.00 44 1008.6
20260505014854 61 196 3.0 5.0 0.00 0.00 0.00 43 1008.6
20260505014336 61 177 2.0 5.0 0.00 0.00 0.00 43 1009.0
20260505013845 61 163 1.0 6.0 0.00 0.00 0.00 44 1009.0
20260505013412 60 186 3.0 7.0 0.00 0.00 0.00 44 1009.0
20260505012855 61 151 3.0 10.0 0.00 0.00 0.00 45 1009.2
20260505012339 60 124 5.0 10.0 0.00 0.00 0.00 44 1009.2
20260505011844 60 171 3.0 14.0 0.00 0.00 0.00 44 1009.2
20260505011355 60 151 4.0 14.0 0.00 0.00 0.00 45 1009.0
20260505010839 60 146 9.0 16.0 0.00 0.00 0.00 44 1009.0
20260505010330 61 171 8.0 16.0 0.00 0.00 0.00 44 1009.0
20260505005830 61 153 11.0 16.0 0.00 0.00 0.00 44 1009.4
20260505005358 61 121 10.0 16.0 0.00 0.00 0.00 42 1009.4
20260505004900 63 175 8.0 13.0 0.00 0.00 0.00 39 1009.4
20260505004349 63 144 7.0 10.0 0.00 0.00 0.00 38 1009.2
20260505003918 64 120 2.0 7.0 0.00 0.00 0.00 38 1009.2
20260505003337 63 154 3.0 7.0 0.00 0.00 0.00 37 1009.2
20260505002908 63 100 2.0 4.0 0.00 0.00 0.00 36 1009.5
20260505002330 63 56 0.0 4.0 0.00 0.00 0.00 36 1009.5
20260505001840 63 328 1.0 5.0 0.00 0.00 0.00 36 1009.5
20260505001342 64 302 3.0 5.0 0.00 0.00 0.00 35 1009.1
20260505000855 64 31 0.0 6.0 0.00 0.00 0.00 35 1009.1
20260505000344 64 326 1.0 7.0 0.00 0.00 0.00 36 1009.1
20260504235830 64 343 2.0 7.0 0.00 0.00 0.00 35 1009.2
20260504235353 64 5 2.0 7.0 0.00 0.00 0.00 35 1009.2
20260504234850 64 320 4.0 9.0 0.00 0.00 0.00 36 1009.2
20260504234352 64 340 6.0 10.0 0.00 0.00 0.00 36 1009.3
20260504233830 64 345 3.0 9.0 0.00 0.00 0.00 34 1009.3
20260504233406 65 325 3.0 7.0 0.00 0.00 0.00 35 1009.3
20260504232855 66 273 1.0 7.0 0.00 0.00 0.00 33 1009.1
20260504232351 67 347 6.0 7.0 0.00 0.00 0.00 34 1009.1
20260504231850 67 353 1.0 12.0 0.00 0.00 0.00 33 1009.1
20260504231349 66 48 5.0 12.0 0.00 0.00 0.00 34 1008.8
20260504230849 66 97 7.0 13.0 0.00 0.00 0.00 35 1008.8
20260504230356 66 86 7.0 13.0 0.00 0.00 0.00 35 1008.8
20260504225903 65 47 5.0 15.0 0.00 0.00 0.00 35 1009.5
20260504225351 65 124 8.0 18.0 0.00 0.00 0.00 35 1009.5
20260504224847 65 130 8.0 18.0 0.00 0.00 0.00 36 1009.5
20260504224349 64 61 9.0 18.0 0.00 0.00 0.00 35 1009.2
20260504223831 64 105 11.0 17.0 0.00 0.00 0.00 37 1009.2
20260504223339 63 82 8.0 17.0 0.00 0.00 0.00 35 1009.2
20260504222831 64 59 10.0 16.0 0.00 0.00 0.00 36 1009.6
20260504222338 64 19 1.0 14.0 0.00 0.00 0.00 35 1009.6
20260504221851 64 5 4.0 14.0 0.00 0.00 0.00 36 1009.6
20260504221352 64 356 8.0 14.0 0.00 0.00 0.00 36 1009.7
20260504220830 65 358 6.0 14.0 0.00 0.00 0.00 37 1009.7
20260504220338 66 358 8.0 12.0 0.00 0.00 0.00 35 1009.7
20260504215853 67 285 6.0 12.0 0.00 0.00 0.00 36 1009.8
20260504215335 67 300 4.0 9.0 0.00 0.00 0.00 35 1009.8
20260504214846 68 356 4.0 8.0 0.00 0.00 0.00 35 1009.8
20260504214356 67 275 3.0 9.0 0.00 0.00 0.00 34 1010.1
20260504213851 66 242 1.0 12.0 0.00 0.00 0.00 33 1010.1
20260504213351 67 210 6.0 12.0 0.00 0.00 0.00 33 1010.1
20260504212850 66 304 4.0 15.0 0.00 0.00 0.00 34 1009.9
20260504212331 68 277 5.0 15.0 0.00 0.00 0.00 31 1009.9
20260504211837 68 180 9.0 14.0 0.00 0.00 0.00 33 1009.9
20260504211348 70 140 8.0 14.0 0.00 0.00 0.00 29 1009.8
20260504210829 71 179 8.0 14.0 0.00 0.00 0.00 29 1009.8
20260504210356 72 160 10.0 17.0 0.00 0.00 0.00 31 1009.8
20260504205835 71 125 12.0 17.0 0.00 0.00 0.00 29 1009.9
20260504205401 71 185 7.0 16.0 0.00 0.00 0.00 30 1009.9
20260504204848 71 197 9.0 13.0 0.00 0.00 0.00 30 1009.9
20260504204330 72 163 8.0 13.0 0.00 0.00 0.00 31 1009.7
20260504203838 69 228 3.0 13.0 0.00 0.00 0.00 30 1009.7
20260504203345 69 234 9.0 14.0 0.00 0.00 0.00 29 1009.7
20260504202843 70 211 4.0 14.0 0.00 0.00 0.00 30 1009.9
20260504202344 69 187 8.0 12.0 0.00 0.00 0.00 31 1009.9
20260504201843 70 157 8.0 14.0 0.00 0.00 0.00 29 1009.9
20260504201353 70 162 6.0 14.0 0.00 0.00 0.00 31 1010.0
20260504200841 69 186 4.0 13.0 0.00 0.00 0.00 29 1010.0
20260504200356 69 274 7.0 16.0 0.00 0.00 0.00 29 1010.0
20260504195852 70 200 5.0 16.0 0.00 0.00 0.00 32 1010.7
20260504195352 70 221 6.0 12.0 0.00 0.00 0.00 32 1010.7
20260504194853 72 165 7.0 13.0 0.00 0.00 0.00 28 1010.7
20260504194331 70 212 7.0 13.0 0.00 0.00 0.00 34 1010.3
20260504193842 71 189 6.0 12.0 0.00 0.00 0.00 33 1010.3
20260504193350 70 165 4.0 12.0 0.00 0.00 0.00 30 1010.3
20260504192858 67 177 1.0 15.0 0.00 0.00 0.00 35 1010.9
20260504192340 70 181 10.0 15.0 0.00 0.00 0.00 31 1010.9
20260504191841 68 221 1.0 11.0 0.00 0.00 0.00 31 1010.9
20260504191351 69 133 7.0 15.0 0.00 0.00 0.00 33 1010.6
20260504190854 70 140 7.0 15.0 0.00 0.00 0.00 32 1010.6
20260504190334 69 145 6.0 14.0 0.00 0.00 0.00 33 1010.6
20260504185842 68 200 8.0 11.0 0.00 0.00 0.00 32 1011.2
20260504185350 67 140 4.0 11.0 0.00 0.00 0.00 34 1011.2
20260504184847 67 136 1.0 12.0 0.00 0.00 0.00 35 1011.2
20260504184348 67 163 9.0 12.0 0.00 0.00 0.00 35 1011.0
20260504183914 67 138 4.0 13.0 0.00 0.00 0.00 35 1011.0
20260504183336 67 190 8.0 13.0 0.00 0.00 0.00 33 1011.0
20260504182845 67 218 6.0 11.0 0.00 0.00 0.00 35 1011.2
20260504182352 67 167 1.0 15.0 0.00 0.00 0.00 33 1011.2
20260504181828 68 133 5.0 15.0 0.00 0.00 0.00 34 1011.2
20260504181353 66 179 4.0 15.0 0.00 0.00 0.00 32 1011.2
20260504180850 66 104 7.0 15.0 0.00 0.00 0.00 36 1011.2
20260504180346 67 171 6.0 13.0 0.00 0.00 0.00 34 1011.2
20260504175847 67 121 8.0 13.0 0.00 0.00 0.00 35 1011.7
20260504175352 66 110 5.0 12.0 0.00 0.00 0.00 35 1011.7
20260504174857 66 182 6.0 12.0 0.00 0.00 0.00 34 1011.7
20260504174351 66 152 6.0 13.0 0.00 0.00 0.00 36 1011.7
20260504173827 67 160 7.0 13.0 0.00 0.00 0.00 36 1011.7
20260504173356 65 138 9.0 12.0 0.00 0.00 0.00 36 1011.7
20260504172833 66 148 9.0 10.0 0.00 0.00 0.00 36 1011.7
20260504172338 66 131 5.0 10.0 0.00 0.00 0.00 36 1011.7
20260504171851 65 138 4.0 10.0 0.00 0.00 0.00 37 1011.7
20260504171331 64 171 8.0 12.0 0.00 0.00 0.00 37 1012.0
20260504170838 64 124 7.0 13.0 0.00 0.00 0.00 36 1012.0
20260504170343 65 162 5.0 14.0 0.00 0.00 0.00 36 1012.0
20260504160349 62 164 1.0 6.0 0.00 0.00 0.00 43 1011.8
20260504150841 58 131 2.0 5.0 0.00 0.00 0.00 48 1012.7
20260504150352 57 141 0.0 5.0 0.00 0.00 0.00 50 1012.7
20260504140857 56 159 2.0 5.0 0.00 0.00 0.00 51 1012.3
20260504140331 55 141 2.0 5.0 0.00 0.00 0.00 50 1012.3
20260504130333 55 144 2.0 7.0 0.00 0.00 0.00 47 1012.7
20260504110350 54 164 4.0 11.0 0.00 0.00 0.00 51 1012.8
20260504100347 55 133 2.0 7.0 0.00 0.00 0.00 41 1012.5
20260504081846 54 65 2.0 4.0 0.00 0.00 0.00 39 1012.3
20260504081348 54 75 2.0 6.0 0.00 0.00 0.00 38 1012.6
20260504080850 54 103 3.0 7.0 0.00 0.00 0.00 40 1012.6
20260504080354 55 132 3.0 8.0 0.00 0.00 0.00 40 1012.6
20260504070342 56 248 1.0 4.0 0.00 0.00 0.00 29 1011.2
20260504050347 59 333 1.0 5.0 0.00 0.00 0.00 27 1011.7
20260504045858 59 346 3.0 5.0 0.00 0.00 0.00 28 1011.8
20260504045348 60 345 2.0 5.0 0.00 0.00 0.00 27 1011.8
20260504044914 60 337 3.0 5.0 0.00 0.00 0.00 27 1011.8
20260504044354 60 354 3.0 6.0 0.00 0.00 0.00 28 1012.2
20260504043845 61 335 5.0 6.0 0.00 0.00 0.00 28 1012.2
20260504043330 60 10 3.0 6.0 0.00 0.00 0.00 29 1012.2
20260504042843 61 343 5.0 7.0 0.00 0.00 0.00 27 1011.9
20260504042345 60 333 5.0 7.0 0.00 0.00 0.00 29 1011.9
20260504041848 60 321 5.0 7.0 0.00 0.00 0.00 30 1011.9